Orbital Elements at Epoch 2459200.5 (2020-Dec-17.0) TDB
Reference: JPL 32 (heliocentric ecliptic J2000)
Element | Value | Uncertainty (1-sigma) | Units |
e | .08493793913505625 | 4.5415e-08 | |
a | 2.952032523816868 | 1.6688e-08 | au |
q | 2.701292964984205 | 1.3071e-07 | au |
i | 2.290177500595865 | 3.9237e-06 | deg |
node | 144.7108895770689 | 0.00011197 | deg |
peri | 195.2958682441582 | 0.00011504 | deg |
M | 126.0328812258074 | 2.7714e-05 | deg |
tp | 2458551.923068294312 (2019-Mar-09.42306829) | 0.00014201 | TDB |
period | 1852.59349102492 5.07 | 1.571e-05 4.301e-08 | d yr |
n | .194322176853183 | 1.6478e-09 | deg/d |
Q | 3.202772082649532 | 1.8106e-08 | au |
|
| | Orbit Determination Parameters
Additional Information
|